Location: Peebles
(55.6412°N, 3.1714°W)
Time: 15:47:45
(UTC+01:00)

Cosmos 1898 Rocket - Pass Details

Date: 26 September 2021
Orbit: 752 x 784 km, 74.0° (Epoch: 17 October)

Event Time Altitude Azimuth Distance (km) Brightness Sun altitude
Exits shadow 21:50:27 60° 98° (E) 878 3.4 -23.4°
Drops below altitude 10° 21:55:24 10° 33° (NNE) 2,324 6.0 -24.0°
Sets 21:57:50 0° 30° (NNE) 3,261 6.9 -24.3°
